Regional Weather Roundup
Issued by NWS

Home | Current Version | Previous Version | Graphics & Text | Print | Product List | Glossary On
Versions: 1 2 3 4 5 6 7 8 9 10 11 12 13 14 15 16 17 18 19 20 21 22 23 24 25 26 27 28 29 30 31 32 33 34 35 36 37 38 39 40 41 42 43 44 45 46 47 48 49 50
000
ASUS43 KBIS 231820
RWRND

NORTH DAKOTA REGIONAL WEATHER ROUNDUP
NATIONAL WEATHER SERVICE BISMARCK ND
100 PM CDT TUE SEP 23 2014

NOTE: "FAIR" INDICATES FEW OR NO CLOUDS BELOW 12,000 FEET WITH NO
SIGNIFICANT WEATHER AND/OR OBSTRUCTIONS TO VISIBILITY.


NDZ001>003-009>011-017-231900-
NORTHWEST NORTH DAKOTA

CITY           SKY/WX    TMP DP  RH WIND       PRES   REMARKS
WILLISTON      SUNNY     74  54  49 VRB3      29.86S
6HR MIN TEMP:  46; 6HR MAX TEMP:  74;

MINOT          SUNNY     75  57  53 S15       29.87S
MINOT AFB      SUNNY     74  59  58 S15       29.86F
$$

NDZ018>021-031>035-040>046-231900-
SOUTHWEST NORTH DAKOTA

CITY           SKY/WX    TMP DP  RH WIND       PRES   REMARKS
BISMARCK       MOSUNNY   70  58  65 SE16      29.93S
6HR MIN TEMP:  54; 6HR MAX TEMP:  72;

DICKINSON      SUNNY     73  58  59 SE9       29.87S
GARRISON         N/A     73  59  61 S10       29.89S
6HR MIN TEMP:  54; 6HR MAX TEMP:  73;

HETTINGER ARPT SUNNY     74  56  53 S12       29.91S
$$

NDZ004>008-012>016-024-026-027-054-231900-
NORTHEAST NORTH DAKOTA

CITY           SKY/WX    TMP DP  RH WIND       PRES   REMARKS
GRAND FORKS    MOSUNNY   74  57  55 S15       30.01S
GRND FRKS AFB  SUNNY     74  58  57 S16       30.01F
DEVILS LAKE    SUNNY     73  55  53 S20G26    29.95S
$$

NDZ022-023-025-028>030-036>039-047>053-231900-
SOUTHEAST NORTH DAKOTA

CITY           SKY/WX    TMP DP  RH WIND       PRES   REMARKS
FARGO          PTSUNNY   71  55  56 S9G20     30.05R
6HR MIN TEMP:  56; 6HR MAX TEMP:  73;

JAMESTOWN      PTSUNNY   68  58  70 S17G25    30.00S
$$



USA.gov is the U.S. government's official web portal to all federal, state and local government web resources and services.